TimeCST,TemperatureF,Dew PointF,Humidity,Sea Level PressureIn,VisibilityMPH,Wind Direction,Wind SpeedMPH,Gust SpeedMPH,PrecipitationIn,Events,Conditions,WindDirDegrees,DateUTC
12:03 AM,55.4,55.4,100,29.87,8.0,East,10.4,17.3,N/A,Rain-Thunderstorm,Light Thunderstorms and Rain,80,2013-02-25 06:03:00
12:04 AM,55.4,55.4,100,29.87,8.0,East,11.5,17.3,N/A,Rain-Thunderstorm,Light Rain,90,2013-02-25 06:04:00
12:09 AM,57.2,55.4,94,29.87,10.0,East,9.2,17.3,N/A,Rain-Thunderstorm,Light Rain,90,2013-02-25 06:09:00
12:32 AM,57.2,57.2,100,29.86,6.0,NE,6.9,-,N/A,Rain-Thunderstorm,Light Thunderstorms and Rain,50,2013-02-25 06:32:00
12:47 AM,57.2,57.2,100,29.88,3.0,Variable,6.9,-,N/A,Rain-Thunderstorm,Light Thunderstorms and Rain,0,2013-02-25 06:47:00
12:50 AM,57.2,57.2,100,29.90,5.0,WNW,8.1,-,N/A,Rain-Thunderstorm,Light Rain,290,2013-02-25 06:50:00
12:55 AM,57.2,57.2,100,29.86,6.0,NE,8.1,-,N/A,Rain-Thunderstorm,Light Rain,40,2013-02-25 06:55:00
12:58 AM,56.8,56.5,99,29.85,5.0,NE,9.2,-,0.14,Rain-Thunderstorm,Light Rain,40,2013-02-25 06:58:00
1:03 AM,57.2,57.2,100,29.88,2.5,ENE,3.5,-,N/A,Rain-Thunderstorm,Heavy Rain,70,2013-02-25 07:03:00
1:04 AM,57.2,57.2,100,29.88,2.5,ENE,3.5,-,N/A,Rain-Thunderstorm,Heavy Thunderstorms and Rain,70,2013-02-25 07:04:00
1:14 AM,57.2,57.2,100,29.87,2.0,Variable,4.6,-,N/A,Rain-Thunderstorm,Heavy Thunderstorms and Rain,0,2013-02-25 07:14:00
1:19 AM,57.2,57.2,100,29.85,1.5,North,8.1,-,N/A,Rain-Thunderstorm,Heavy Thunderstorms and Rain,360,2013-02-25 07:19:00
1:24 AM,57.2,57.2,100,29.86,2.5,East,4.6,-,N/A,Rain-Thunderstorm,Light Thunderstorms and Rain,90,2013-02-25 07:24:00
1:25 AM,57.2,57.2,100,29.86,4.0,ESE,5.8,-,N/A,Rain-Thunderstorm,Light Rain,110,2013-02-25 07:25:00
1:40 AM,57.2,57.2,100,29.83,6.0,ENE,5.8,-,N/A,Rain-Thunderstorm,Light Rain,70,2013-02-25 07:40:00
1:50 AM,57.2,57.2,100,29.83,10.0,East,9.2,-,N/A,Rain-Thunderstorm,Light Thunderstorms and Rain,80,2013-02-25 07:50:00
1:55 AM,57.2,57.2,100,29.83,10.0,East,8.1,-,N/A,Rain-Thunderstorm,Light Thunderstorms and Rain,80,2013-02-25 07:55:00
1:58 AM,56.8,56.5,99,29.83,10.0,East,5.8,-,0.27,Rain-Thunderstorm,Light Thunderstorms and Rain,80,2013-02-25 07:58:00
2:01 AM,57.2,57.2,100,29.82,10.0,ENE,6.9,-,N/A,Rain-Thunderstorm,Light Thunderstorms and Rain,70,2013-02-25 08:01:00
2:03 AM,57.2,57.2,100,29.82,10.0,East,8.1,-,N/A,Thunderstorm,Thunderstorm,80,2013-02-25 08:03:00
2:05 AM,57.2,57.2,100,29.82,10.0,East,8.1,-,N/A,,Mostly Cloudy,90,2013-02-25 08:05:00
2:09 AM,57.2,57.2,100,29.83,10.0,East,6.9,-,N/A,Rain,Light Rain,80,2013-02-25 08:09:00
2:14 AM,57.2,57.2,100,29.83,8.0,East,6.9,-,N/A,Rain,Light Rain,80,2013-02-25 08:14:00
2:44 AM,57.2,57.2,100,29.82,5.0,NE,6.9,-,N/A,Rain,Rain,50,2013-02-25 08:44:00
2:58 AM,57.0,56.7,99,29.80,5.0,ENE,6.9,-,0.10,Rain,Light Rain,60,2013-02-25 08:58:00
3:05 AM,57.2,57.2,100,29.79,9.0,East,8.1,-,N/A,Rain-Thunderstorm,Light Thunderstorms and Rain,80,2013-02-25 09:05:00
3:25 AM,57.2,57.2,100,29.78,3.0,ENE,9.2,-,N/A,Rain-Thunderstorm,Heavy Thunderstorms and Rain,60,2013-02-25 09:25:00
3:30 AM,57.2,57.2,100,29.78,2.5,East,10.4,-,N/A,Rain-Thunderstorm,Thunderstorms and Rain,80,2013-02-25 09:30:00
3:33 AM,57.2,57.2,100,29.78,4.0,East,9.2,-,N/A,Rain-Thunderstorm,Rain,80,2013-02-25 09:33:00
3:36 AM,57.2,57.2,100,29.78,7.0,East,8.1,-,N/A,Rain-Thunderstorm,Light Thunderstorms and Rain,80,2013-02-25 09:36:00
3:41 AM,57.2,57.2,100,29.78,9.0,East,6.9,-,N/A,Rain-Thunderstorm,Light Thunderstorms and Rain,100,2013-02-25 09:41:00
3:46 AM,57.2,57.2,100,29.80,7.0,SE,9.2,-,N/A,Rain-Thunderstorm,Light Thunderstorms and Rain,140,2013-02-25 09:46:00
3:56 AM,57.2,57.2,100,29.82,2.5,SE,11.5,-,N/A,Rain-Thunderstorm,Heavy Thunderstorms and Rain,140,2013-02-25 09:56:00
3:58 AM,57.2,57.2,100,29.82,2.5,SE,12.7,-,0.19,Rain-Thunderstorm,Heavy Thunderstorms and Rain,140,2013-02-25 09:58:00
4:03 AM,59.0,57.2,94,29.81,1.8,SE,5.8,-,N/A,Rain-Thunderstorm,Heavy Thunderstorms and Rain,140,2013-02-25 10:03:00
4:08 AM,59.0,57.2,94,29.83,3.0,SSE,5.8,-,N/A,Rain-Thunderstorm,Thunderstorms and Rain,150,2013-02-25 10:08:00
4:16 AM,59.0,59.0,100,29.81,8.0,East,6.9,-,N/A,Rain,Light Rain,100,2013-02-25 10:16:00
4:31 AM,59.0,59.0,100,29.80,10.0,East,5.8,-,N/A,,Scattered Clouds,90,2013-02-25 10:31:00
4:34 AM,60.8,59.0,94,29.80,10.0,ENE,4.6,-,N/A,Rain,Light Rain,70,2013-02-25 10:34:00
4:55 AM,59.0,59.0,100,29.79,10.0,NNE,6.9,-,N/A,,Mostly Cloudy,30,2013-02-25 10:55:00
4:58 AM,59.0,59.0,100,29.79,10.0,NNE,6.9,-,0.16,,Overcast,20,2013-02-25 10:58:00
4:59 AM,59.0,59.0,100,29.79,10.0,NNE,5.8,-,N/A,,Light Drizzle,30,2013-02-25 10:59:00
5:15 AM,59.0,59.0,100,29.79,10.0,NNE,6.9,-,N/A,Rain-Thunderstorm,Light Thunderstorms and Rain,30,2013-02-25 11:15:00
5:23 AM,59.0,59.0,100,29.79,10.0,North,10.4,-,N/A,Rain-Thunderstorm,Light Thunderstorms and Rain,10,2013-02-25 11:23:00
5:30 AM,59.0,59.0,100,29.80,10.0,Variable,4.6,-,N/A,Rain,Light Rain,0,2013-02-25 11:30:00
5:35 AM,59.0,59.0,100,29.82,10.0,Variable,4.6,-,N/A,Rain,Light Rain,0,2013-02-25 11:35:00
5:40 AM,59.0,59.0,100,29.77,7.0,NNE,15.0,-,N/A,Rain-Thunderstorm,Light Thunderstorms and Rain,30,2013-02-25 11:40:00
5:58 AM,58.3,57.9,99,29.79,6.0,NE,10.4,-,0.09,Rain-Thunderstorm,Light Thunderstorms and Rain,40,2013-02-25 11:58:00
6:03 AM,57.2,57.2,100,29.79,4.0,NE,13.8,-,N/A,Rain-Thunderstorm,Thunderstorms and Rain,40,2013-02-25 12:03:00
6:23 AM,57.2,57.2,100,29.80,2.5,NNE,6.9,-,N/A,Rain-Thunderstorm,Heavy Thunderstorms and Rain,20,2013-02-25 12:23:00
6:33 AM,57.2,57.2,100,29.82,1.8,North,9.2,-,N/A,Rain-Thunderstorm,Heavy Thunderstorms and Rain,10,2013-02-25 12:33:00
6:38 AM,57.2,57.2,100,29.84,1.8,Variable,6.9,-,N/A,Rain-Thunderstorm,Heavy Thunderstorms and Rain,0,2013-02-25 12:38:00
6:48 AM,59.0,57.2,94,29.83,1.0,ENE,10.4,-,N/A,Rain-Thunderstorm,Heavy Thunderstorms and Rain,60,2013-02-25 12:48:00
6:58 AM,59.0,57.2,94,29.83,1.5,North,12.7,-,0.57,Rain-Thunderstorm,Thunderstorms and Rain,10,2013-02-25 12:58:00
6:59 AM,59.0,57.2,94,29.83,2.0,North,11.5,-,N/A,Rain,Rain,10,2013-02-25 12:59:00
7:01 AM,59.0,57.2,94,29.83,2.5,NNE,9.2,-,N/A,Rain-Thunderstorm,Heavy Thunderstorms and Rain,30,2013-02-25 13:01:00
7:11 AM,57.2,57.2,100,29.86,3.0,North,9.2,-,N/A,Rain-Thunderstorm,Thunderstorms and Rain,350,2013-02-25 13:11:00
7:21 AM,57.2,57.2,100,29.87,1.8,North,13.8,-,N/A,Rain-Thunderstorm,Heavy Thunderstorms and Rain,350,2013-02-25 13:21:00
7:22 AM,57.2,57.2,100,29.86,1.8,North,15.0,-,N/A,Rain-Thunderstorm,Heavy Thunderstorms and Rain,360,2013-02-25 13:22:00
7:35 AM,57.2,57.2,100,29.84,2.5,North,13.8,-,N/A,Rain,Rain,10,2013-02-25 13:35:00
7:40 AM,57.2,57.2,100,29.84,4.0,North,10.4,-,N/A,Rain,Light Rain,10,2013-02-25 13:40:00
7:45 AM,57.2,57.2,100,29.85,6.0,NNE,10.4,-,N/A,Rain,Rain,20,2013-02-25 13:45:00
7:58 AM,57.0,56.8,99,29.85,5.0,North,12.7,-,0.35,Rain,Rain,10,2013-02-25 13:58:00
8:13 AM,57.2,57.2,100,29.84,7.0,NE,10.4,-,N/A,Rain,Light Rain,50,2013-02-25 14:13:00
8:38 AM,57.2,55.4,94,29.85,3.0,ENE,8.1,-,N/A,Rain,Rain,60,2013-02-25 14:38:00
8:48 AM,57.2,57.2,100,29.85,6.0,East,11.5,18.4,N/A,Rain,Rain,80,2013-02-25 14:48:00
8:55 AM,56.8,56.7,99,29.85,3.0,ENE,10.4,18.4,0.15,Rain,Heavy Rain,60,2013-02-25 14:55:00
9:55 AM,58.3,57.9,99,29.83,7.0,ENE,12.7,19.6,0.07,Rain,Light Rain,70,2013-02-25 15:55:00
10:32 AM,59.0,59.0,100,29.82,2.5,East,15.0,24.2,N/A,Rain,Rain,90,2013-02-25 16:32:00
10:59 AM,59.2,58.8,99,29.84,5.0,ENE,9.2,-,0.05,,Overcast,60,2013-02-25 16:59:00
11:55 AM,61.3,61.3,100,29.80,7.0,East,12.7,21.9,0.00,,Mostly Cloudy,100,2013-02-25 17:55:00
12:55 PM,64.8,58.3,79,29.75,7.0,East,11.5,-,N/A,,Mostly Cloudy,100,2013-02-25 18:55:00
1:57 PM,65.3,58.5,78,29.73,7.0,East,16.1,-,N/A,,Mostly Cloudy,90,2013-02-25 19:57:00
2:15 PM,64.4,59.0,83,29.72,10.0,East,11.5,20.7,N/A,,Mostly Cloudy,100,2013-02-25 20:15:00
2:55 PM,63.7,58.3,83,29.72,10.0,East,9.2,-,N/A,,Overcast,90,2013-02-25 20:55:00
3:55 PM,62.8,58.3,85,29.70,10.0,ESE,10.4,-,N/A,,Overcast,110,2013-02-25 21:55:00
4:27 PM,62.6,59.0,88,29.71,10.0,ESE,6.9,-,N/A,Rain,Light Rain,120,2013-02-25 22:27:00
4:49 PM,62.6,59.0,88,29.71,10.0,ESE,10.4,-,N/A,Rain,Light Rain,120,2013-02-25 22:49:00
4:55 PM,61.5,59.9,94,29.70,9.0,ESE,10.4,-,0.01,Rain,Light Rain,110,2013-02-25 22:55:00
4:59 PM,61.5,59.9,94,29.70,7.0,ESE,6.9,-,0.01,Rain,Light Rain,110,2013-02-25 22:59:00
5:19 PM,60.8,60.8,100,29.71,5.0,ESE,3.5,-,N/A,Rain,Light Rain,120,2013-02-25 23:19:00
5:55 PM,60.8,60.6,99,29.69,5.0,Variable,6.9,-,0.18,Rain,Light Rain,0,2013-02-25 23:55:00
6:05 PM,60.8,60.8,100,29.68,5.0,East,12.7,-,N/A,Rain,Light Rain,100,2013-02-26 00:05:00
6:33 PM,60.8,60.8,100,29.66,10.0,ESE,8.1,-,N/A,,Overcast,110,2013-02-26 00:33:00
6:55 PM,61.3,61.0,99,29.66,6.0,East,9.2,-,0.06,,Overcast,100,2013-02-26 00:55:00
7:41 PM,60.8,60.8,100,29.64,6.0,ESE,9.2,-,N/A,Rain,Light Rain,120,2013-02-26 01:41:00
7:55 PM,61.3,61.0,99,29.65,6.0,ESE,9.2,-,0.01,Rain,Light Rain,110,2013-02-26 01:55:00
8:33 PM,62.6,60.8,94,29.63,7.0,ESE,12.7,18.4,N/A,,Mostly Cloudy,120,2013-02-26 02:33:00
8:55 PM,62.1,61.9,99,29.63,7.0,SE,13.8,18.4,0.00,Rain,Light Rain,130,2013-02-26 02:55:00
9:14 PM,62.6,62.6,100,29.64,7.0,SE,11.5,17.3,N/A,Rain,Light Rain,140,2013-02-26 03:14:00
9:47 PM,62.6,62.6,100,29.64,7.0,SE,9.2,-,N/A,Rain,Light Rain,130,2013-02-26 03:47:00
9:55 PM,62.8,62.6,99,29.64,7.0,SE,8.1,-,0.01,Rain,Light Rain,140,2013-02-26 03:55:00
10:13 PM,62.6,62.6,100,29.63,7.0,ESE,13.8,-,N/A,Rain,Light Rain,120,2013-02-26 04:13:00
10:34 PM,64.4,64.4,100,29.61,5.0,ESE,12.7,20.7,N/A,Rain,Light Rain,120,2013-02-26 04:34:00
10:55 PM,64.0,63.7,99,29.59,5.0,SE,15.0,23.0,0.06,Rain,Light Rain,130,2013-02-26 04:55:00
11:27 PM,64.4,64.4,100,29.58,4.0,SSE,12.7,20.7,N/A,Rain-Thunderstorm,Thunderstorms and Rain,150,2013-02-26 05:27:00
11:46 PM,64.4,64.4,100,29.55,5.0,SE,11.5,-,N/A,Rain,Rain,140,2013-02-26 05:46:00
11:55 PM,64.9,64.6,99,29.56,5.0,SE,12.7,20.7,0.18,Rain,Heavy Rain,140,2013-02-26 05:55:00
11:56 PM,64.4,64.4,100,29.54,5.0,SE,12.7,20.7,N/A,Rain,Heavy Rain,130,2013-02-26 05:56:00